Le nostre stazioni meteo in Italia

Pubblicità
Il mio iltempo24.it
Termoli, Italia (16232): Temperatura & dewpoint: 18.06.2018 22:00:00 - 24.06.2018 22:00:00 (CEST)Termoli, Italia (16232): velocità del vento: 18.06.2018 22:00:00 - 24.06.2018 22:00:00 (CEST)Termoli, Italia (16232): direzione del vento: 18.06.2018 22:00:00 - 24.06.2018 22:00:00 (CEST)Termoli, Italia (16232): reduced air pressure: 18.06.2018 22:00:00 - 24.06.2018 22:00:00 (CEST)Termoli, Italia (16232): visibility: 18.06.2018 22:00:00 - 24.06.2018 22:00:00 (CEST)Termoli, Italia (16232): ore di luce: 18.06.2018 22:00:00 - 24.06.2018 22:00:00 (CEST)
Data & Tempo tt [°C] td [°C] ff [km/h] ff [kn] dd ppp [hPa] vv [km] sd [min]
24.06.2018 22:00:00 - - - - - - - -
24.06.2018 21:00:00 - - - - - - - -
24.06.2018 20:00:00 26,4 10,1 16 9 NO 1015,7 25 60
24.06.2018 19:00:00 - - - - - - - -
24.06.2018 18:00:00 - - - - - - - -
24.06.2018 17:00:00 24,0 11,7 24 13 NO 1016,4 20 60
24.06.2018 16:00:00 - - - - - - - -
24.06.2018 15:00:00 - - - - - - - -
24.06.2018 14:00:00 25,0 11,6 34 18 NO 1017,1 25 60
24.06.2018 13:00:00 - - - - - - - -
24.06.2018 12:00:00 - - - - - - - -
24.06.2018 11:00:00 24,2 13,1 22 12 NO 1017,3 25 60
24.06.2018 10:00:00 - - - - - - - -
24.06.2018 09:00:00 - - - - - - - -
24.06.2018 08:00:00 22,6 14,7 29 16 NO 1016,5 25 48
24.06.2018 07:00:00 - - - - - - - -
24.06.2018 06:00:00 - - - - - - - -
24.06.2018 05:00:00 - - - - - - - -
24.06.2018 04:00:00 - - - - - - - -
24.06.2018 03:00:00 - - - - - - - -
24.06.2018 02:00:00 - - - - - - - -
24.06.2018 01:00:00 - - - - - - - -
24.06.2018 00:00:00 - - - - - - - -
23.06.2018 23:00:00 - - - - - - - -
23.06.2018 22:00:00 - - - - - - - -
23.06.2018 21:00:00 - - - - - - - -
23.06.2018 20:00:00 25,0 9,3 28 15 NO 1017,2 25 18
23.06.2018 19:00:00 - - - - - - - -
23.06.2018 18:00:00 - - - - - - - -
23.06.2018 17:00:00 25,0 8,5 28 15 ONO 1018,4 30 60
23.06.2018 16:00:00 - - - - - - - -
23.06.2018 15:00:00 - - - - - - - -
23.06.2018 14:00:00 24,8 10,7 41 22 ONO 1018,3 35 60
23.06.2018 13:00:00 - - - - - - - -
23.06.2018 12:00:00 - - - - - - - -
23.06.2018 11:00:00 24,0 12,6 44 24 ONO 1018,2 25 60
23.06.2018 10:00:00 - - - - - - - -
23.06.2018 09:00:00 - - - - - - - -
23.06.2018 08:00:00 23,4 14,1 41 22 NO 1017,1 25 24
23.06.2018 07:00:00 - - - - - - - -
23.06.2018 06:00:00 - - - - - - - -
23.06.2018 05:00:00 - - - - - - - -
23.06.2018 04:00:00 - - - - - - - -
23.06.2018 03:00:00 - - - - - - - -
23.06.2018 02:00:00 - - - - - - - -
23.06.2018 01:00:00 - - - - - - - -
23.06.2018 00:00:00 - - - - - - - -
22.06.2018 23:00:00 - - - - - - - -
22.06.2018 22:00:00 - - - - - - - -
22.06.2018 21:00:00 - - - - - - - -
22.06.2018 20:00:00 25,0 24,5 63 34 NNE 1011,2 4,0 -
22.06.2018 19:00:00 - - - - - - - -
22.06.2018 18:00:00 - - - - - - - -
22.06.2018 17:00:00 28,8 21,6 8 4 O 1010,3 20 0
22.06.2018 16:00:00 - - - - - - - -
22.06.2018 15:00:00 - - - - - - - -
22.06.2018 14:00:00 31,8 24,1 5 3 N 1010,1 20 60
22.06.2018 13:00:00 - - - - - - - -
22.06.2018 12:00:00 - - - - - - - -
22.06.2018 11:00:00 29,8 22,0 11 6 NNE 1011,1 20 60
22.06.2018 10:00:00 - - - - - - - -
22.06.2018 09:00:00 - - - - - - - -
22.06.2018 08:00:00 27,4 19,2 8 4 OSO 1011,5 25 36
22.06.2018 07:00:00 - - - - - - - -
22.06.2018 06:00:00 - - - - - - - -
22.06.2018 05:00:00 - - - - - - - -
22.06.2018 04:00:00 - - - - - - - -
22.06.2018 03:00:00 - - - - - - - -
22.06.2018 02:00:00 - - - - - - - -
22.06.2018 01:00:00 - - - - - - - -
22.06.2018 00:00:00 - - - - - - - -
21.06.2018 23:00:00 - - - - - - - -
21.06.2018 22:00:00 - - - - - - - -
21.06.2018 21:00:00 - - - - - - - -
21.06.2018 20:00:00 29,6 19,0 4 2 NNE 1012,7 20 48
21.06.2018 19:00:00 - - - - - - - -
21.06.2018 18:00:00 - - - - - - - -
21.06.2018 17:00:00 30,6 23,5 11 6 NE 1013,4 20 60
21.06.2018 16:00:00 - - - - - - - -
21.06.2018 15:00:00 - - - - - - - -
21.06.2018 14:00:00 29,6 24,0 13 7 NNE 1015,2 20 60
21.06.2018 13:00:00 - - - - - - - -
21.06.2018 12:00:00 - - - - - - - -
21.06.2018 11:00:00 28,2 22,0 5 3 NNE 1016,3 20 60
21.06.2018 10:00:00 - - - - - - - -
21.06.2018 09:00:00 - - - - - - - -
21.06.2018 08:00:00 25,2 20,0 2 1 O 1017,0 18 30
21.06.2018 07:00:00 - - - - - - - -
21.06.2018 06:00:00 - - - - - - - -
21.06.2018 05:00:00 - - - - - - - -
21.06.2018 04:00:00 - - - - - - - -
21.06.2018 03:00:00 - - - - - - - -
21.06.2018 02:00:00 - - - - - - - -
21.06.2018 01:00:00 - - - - - - - -
21.06.2018 00:00:00 - - - - - - - -
20.06.2018 23:00:00 - - - - - - - -
20.06.2018 22:00:00 - - - - - - - -
20.06.2018 21:00:00 - - - - - - - -
20.06.2018 20:00:00 28,2 24,0 11 6 NO 1017,5 12 60
20.06.2018 19:00:00 - - - - - - - -
20.06.2018 18:00:00 - - - - - - - -
20.06.2018 17:00:00 26,6 24,5 13 7 ONO 1017,8 15 60
20.06.2018 16:00:00 - - - - - - - -
20.06.2018 15:00:00 - - - - - - - -
20.06.2018 14:00:00 28,6 24,8 21 11 NNO 1018,4 15 60
20.06.2018 13:00:00 - - - - - - - -
20.06.2018 12:00:00 - - - - - - - -
20.06.2018 11:00:00 27,4 22,1 24 13 NO 1018,7 20 60
20.06.2018 10:00:00 - - - - - - - -
20.06.2018 09:00:00 - - - - - - - -
20.06.2018 08:00:00 25,6 17,8 29 16 NO 1018,1 20 30
20.06.2018 07:00:00 - - - - - - - -
20.06.2018 06:00:00 - - - - - - - -
20.06.2018 05:00:00 - - - - - - - -
20.06.2018 04:00:00 - - - - - - - -
20.06.2018 03:00:00 - - - - - - - -
20.06.2018 02:00:00 - - - - - - - -
20.06.2018 01:00:00 - - - - - - - -
20.06.2018 00:00:00 - - - - - - - -
19.06.2018 23:00:00 - - - - - - - -
19.06.2018 22:00:00 - - - - - - - -
19.06.2018 21:00:00 - - - - - - - -
19.06.2018 20:00:00 28,2 21,7 22 12 ONO 1016,5 20 36
19.06.2018 19:00:00 - - - - - - - -
19.06.2018 18:00:00 - - - - - - - -
19.06.2018 17:00:00 28,6 20,6 28 15 ONO 1016,5 20 60
19.06.2018 16:00:00 - - - - - - - -
19.06.2018 15:00:00 - - - - - - - -
19.06.2018 14:00:00 28,0 21,3 34 18 ONO 1017,0 20 60
19.06.2018 13:00:00 - - - - - - - -
19.06.2018 12:00:00 - - - - - - - -
19.06.2018 11:00:00 26,8 23,7 39 21 NNO 1016,6 20 60
19.06.2018 10:00:00 - - - - - - - -
19.06.2018 09:00:00 - - - - - - - -
19.06.2018 08:00:00 26,2 22,9 24 13 ONO 1015,4 20 36
19.06.2018 07:00:00 - - - - - - - -
19.06.2018 06:00:00 - - - - - - - -
19.06.2018 05:00:00 - - - - - - - -
19.06.2018 04:00:00 - - - - - - - -
19.06.2018 03:00:00 - - - - - - - -
19.06.2018 02:00:00 - - - - - - - -
19.06.2018 01:00:00 - - - - - - - -
19.06.2018 00:00:00 - - - - - - - -
18.06.2018 23:00:00 - - - - - - - -
18.06.2018 22:00:00 - - - - - - - -

tt = Temperatura
td = dewpoint
ff = velocità del vento
dd = direzione del vento
ppp = reduced air pressure
vv = visibility
sd = ore di luce

Stazioni seguenti

WeatherPro
AMSI
MeteoEarth